When you browse on this site, cookies collect data to enhance your experience and personalize the content and advertising you see.
Visit our Privacy Policy to learn more. By continuing to use the site, you agree to this use of cookies and data.
  • In Sweden
  • List of Countries
  • For 7 days
  • Water Temperature
  • Satellite Maps
  • Weather Map
  • Weather Widgets
  • user-avatar
    Login

    Hourly Weather Ambah

    Today, 11 December, Tuesday

    Time Temperature Precipitation Wind Pressure Humidity
    00:00 +16°C° 0 mm 1 mps 746 mmHg 51%
    01:00 +16°C° 0 mm 1 mps 746 mmHg 52%
    02:00 +16°C° 0 mm 1 mps 746 mmHg 53%
    03:00 +15°C° 0 mm 1 mps 746 mmHg 55%
    04:00 +15°C° 0 mm 1 mps 746 mmHg 56%
    05:00 +14°C° 0 mm 0 mps 746 mmHg 54%
    06:00 +15°C° 0 mm 0 mps 747 mmHg 52%
    07:00 +15°C° 0 mm 0 mps 747 mmHg 51%
    08:00 +16°C° 0 mm 0 mps 748 mmHg 49%
    09:00 +18°C° 0 mm 0 mps 748 mmHg 45%
    10:00 +22°C° 0 mm 1 mps 748 mmHg 40%
    11:00 +24°C° 0 mm 1 mps 748 mmHg 36%
    12:00 +25°C° 0 mm 1 mps 747 mmHg 34%
    13:00 +25°C° 0 mm 1 mps 747 mmHg 32%
    14:00 +26°C° 0 mm 2 mps 746 mmHg 31%
    15:00 +25°C° 0 mm 1 mps 746 mmHg 34%
    16:00 +23°C° 0 mm 1 mps 746 mmHg 37%
    17:00 +22°C° 0 mm 1 mps 746 mmHg 42%
    18:00 +21°C° 0 mm 1 mps 746 mmHg 44%
    19:00 +20°C° 0 mm 1 mps 746 mmHg 45%
    20:00 +20°C° 0 mm 1 mps 746 mmHg 46%
    21:00 +19°C° 0 mm 1 mps 746 mmHg 47%
    22:00 +19°C° 0 mm 1 mps 747 mmHg 48%
    23:00 +19°C° 0 mm 1 mps 747 mmHg 49%

    Tomorrow, 12 December, Wednesday

    Time Temperature Precipitation Wind Pressure Humidity
    00:00 +18°C° 0 mm 1 mps 746 mmHg 50%
    01:00 +18°C° 0 mm 1 mps 746 mmHg 51%
    02:00 +17°C° 0 mm 2 mps 746 mmHg 51%
    03:00 +17°C° 0 mm 2 mps 746 mmHg 52%
    04:00 +16°C° 0 mm 1 mps 746 mmHg 52%
    05:00 +16°C° 0 mm 1 mps 746 mmHg 53%
    06:00 +18°C° 0 mm 1 mps 747 mmHg 52%
    07:00 +18°C° 0 mm 1 mps 747 mmHg 52%
    08:00 +19°C° 0 mm 1 mps 748 mmHg 51%
    09:00 +20°C° 0 mm 1 mps 748 mmHg 47%
    10:00 +21°C° 0 mm 2 mps 749 mmHg 44%
    11:00 +23°C° 0 mm 2 mps 749 mmHg 40%
    12:00 +23°C° 0.1 mm 2 mps 748 mmHg 43%
    13:00 +22°C° 0.1 mm 3 mps 748 mmHg 46%
    14:00 +21°C° 0.1 mm 3 mps 747 mmHg 49%
    15:00 +20°C° 0 mm 3 mps 747 mmHg 52%
    16:00 +19°C° 0 mm 2 mps 747 mmHg 55%
    17:00 +18°C° 0 mm 2 mps 747 mmHg 58%
    18:00 +18°C° 0 mm 2 mps 747 mmHg 57%
    19:00 +19°C° 0 mm 1 mps 748 mmHg 57%
    20:00 +18°C° 0 mm 1 mps 748 mmHg 56%
    21:00 +18°C° 0 mm 1 mps 748 mmHg 57%
    22:00 +18°C° 0 mm 1 mps 748 mmHg 57%
    23:00 +18°C° 0 mm 1 mps 748 mmHg 58%

    Day after tomorrow, 13 December, Thursday

    Time Temperature Precipitation Wind Pressure Humidity
    00:00 +16°C° 0 mm 1 mps 748 mmHg 59%
    01:00 +16°C° 0 mm 1 mps 748 mmHg 60%
    02:00 +16°C° 0 mm 1 mps 748 mmHg 62%
    03:00 +15°C° 0 mm 1 mps 748 mmHg 63%
    04:00 +15°C° 0 mm 1 mps 748 mmHg 64%
    05:00 +15°C° 0 mm 1 mps 748 mmHg 65%
    06:00 +15°C° 0 mm 1 mps 749 mmHg 62%
    07:00 +16°C° 0 mm 1 mps 749 mmHg 60%
    08:00 +16°C° 0 mm 0 mps 750 mmHg 57%
    09:00 +20°C° 0 mm 1 mps 750 mmHg 51%
    10:00 +22°C° 0 mm 1 mps 750 mmHg 45%
    11:00 +24°C° 0 mm 1 mps 750 mmHg 40%
    12:00 +24°C° 0 mm 1 mps 749 mmHg 38%
    13:00 +25°C° 0 mm 2 mps 749 mmHg 37%
    14:00 +25°C° 0 mm 2 mps 748 mmHg 36%
    15:00 +24°C° 0 mm 2 mps 748 mmHg 39%
    16:00 +23°C° 0 mm 2 mps 748 mmHg 42%
    17:00 +20°C° 0 mm 2 mps 748 mmHg 46%
    18:00 +20°C° 0 mm 2 mps 748 mmHg 48%
    19:00 +19°C° 0 mm 2 mps 749 mmHg 49%
    20:00 +18°C° 0 mm 2 mps 749 mmHg 51%
    21:00 +18°C° 0 mm 2 mps 749 mmHg 53%
    22:00 +18°C° 0 mm 2 mps 749 mmHg 55%
    23:00 +17°C° 0 mm 2 mps 749 mmHg 56%

    14 December, Friday

    Time Temperature Precipitation Wind Pressure Humidity
    00:00 +17°C° 0 mm 2 mps 749 mmHg 58%
    01:00 +16°C° 0 mm 2 mps 749 mmHg 59%
    02:00 +16°C° 0 mm 1 mps 749 mmHg 60%
    03:00 +16°C° 0 mm 2 mps 749 mmHg 61%
    04:00 +15°C° 0 mm 2 mps 749 mmHg 62%
    05:00 +15°C° 0 mm 2 mps 749 mmHg 63%
    06:00 +16°C° 0 mm 2 mps 750 mmHg 61%
    07:00 +16°C° 0 mm 2 mps 751 mmHg 59%
    08:00 +17°C° 0 mm 2 mps 751 mmHg 56%
    09:00 +19°C° 0 mm 2 mps 751 mmHg 48%
    10:00 +21°C° 0 mm 2 mps 751 mmHg 40%
    11:00 +23°C° 0 mm 2 mps 751 mmHg 32%
    12:00 +24°C° 0 mm 2 mps 751 mmHg 29%
    13:00 +25°C° 0 mm 2 mps 750 mmHg 27%
    14:00 +25°C° 0 mm 2 mps 750 mmHg 25%
    15:00 +24°C° 0 mm 2 mps 750 mmHg 28%
    16:00 +21°C° 0 mm 2 mps 749 mmHg 30%
    17:00 +21°C° 0 mm 1 mps 749 mmHg 33%
    18:00 +20°C° 0 mm 1 mps 750 mmHg 34%
    19:00 +18°C° 0 mm 2 mps 751 mmHg 36%
    20:00 +17°C° 0 mm 2 mps 751 mmHg 37%
    21:00 +17°C° 0 mm 2 mps 751 mmHg 38%
    22:00 +17°C° 0 mm 2 mps 751 mmHg 39%
    23:00 +16°C° 0 mm 2 mps 751 mmHg 40%

    15 December, Saturday

    Time Temperature Precipitation Wind Pressure Humidity
    00:00 +16°C° 0 mm 2 mps 751 mmHg 41%
    01:00 +15°C° 0 mm 2 mps 750 mmHg 42%
    02:00 +15°C° 0 mm 2 mps 750 mmHg 44%
    03:00 +15°C° 0 mm 2 mps 750 mmHg 45%
    04:00 +14°C° 0 mm 2 mps 750 mmHg 46%
    05:00 +14°C° 0 mm 2 mps 750 mmHg 48%
    06:00 +14°C° 0 mm 2 mps 750 mmHg 47%
    07:00 +15°C° 0 mm 1 mps 751 mmHg 46%
    08:00 +16°C° 0 mm 1 mps 752 mmHg 46%
    09:00 +19°C° 0 mm 1 mps 751 mmHg 41%
    10:00 +20°C° 0 mm 2 mps 751 mmHg 35%
    11:00 +23°C° 0 mm 2 mps 751 mmHg 30%
    12:00 +23°C° 0 mm 2 mps 751 mmHg 28%
    13:00 +24°C° 0 mm 1 mps 750 mmHg 25%
    14:00 +25°C° 0 mm 1 mps 750 mmHg 23%
    15:00 +23°C° 0 mm 1 mps 750 mmHg 26%
    16:00 +22°C° 0 mm 1 mps 750 mmHg 29%
    17:00 +20°C° 0 mm 1 mps 749 mmHg 31%
    18:00 +19°C° 0 mm 1 mps 750 mmHg 32%
    19:00 +18°C° 0 mm 2 mps 751 mmHg 33%
    20:00 +17°C° 0 mm 2 mps 751 mmHg 34%
    21:00 +17°C° 0 mm 2 mps 751 mmHg 34%
    22:00 +16°C° 0 mm 2 mps 751 mmHg 34%
    23:00 +16°C° 0 mm 2 mps 751 mmHg 35%

    16 December, Sunday

    Time Temperature Precipitation Wind Pressure Humidity
    00:00 +15°C° 0 mm 2 mps 751 mmHg 35%
    01:00 +14°C° 0 mm 1 mps 750 mmHg 36%
    02:00 +14°C° 0 mm 1 mps 750 mmHg 37%
    03:00 +13°C° 0 mm 1 mps 750 mmHg 37%
    04:00 +13°C° 0 mm 1 mps 750 mmHg 38%
    05:00 +13°C° 0 mm 1 mps 750 mmHg 39%
    06:00 +13°C° 0 mm 1 mps 751 mmHg 39%
    07:00 +14°C° 0 mm 1 mps 752 mmHg 39%
    08:00 +15°C° 0 mm 1 mps 752 mmHg 39%
    09:00 +18°C° 0 mm 1 mps 752 mmHg 35%
    10:00 +20°C° 0 mm 1 mps 752 mmHg 31%
    11:00 +20°C° 0 mm 0 mps 752 mmHg 28%
    12:00 +21°C° 0 mm 0 mps 751 mmHg 26%
    13:00 +23°C° 0 mm 1 mps 750 mmHg 24%
    14:00 +24°C° 0 mm 1 mps 749 mmHg 22%
    15:00 +22°C° 0 mm 1 mps 749 mmHg 25%
    16:00 +21°C° 0 mm 1 mps 749 mmHg 28%
    17:00 +19°C° 0 mm 1 mps 749 mmHg 31%
    18:00 +19°C° 0 mm 1 mps 749 mmHg 32%
    19:00 +18°C° 0 mm 1 mps 750 mmHg 33%
    20:00 +16°C° 0 mm 1 mps 750 mmHg 34%
    21:00 +16°C° 0 mm 1 mps 750 mmHg 35%
    22:00 +15°C° 0 mm 1 mps 750 mmHg 36%
    23:00 +15°C° 0 mm 1 mps 750 mmHg 36%
    Show more